Time,TemperatureF,DewpointF,PressureIn,WindDirection,WindDirectionDegrees,WindSpeedMPH,WindSpeedGustMPH,Humidity,HourlyPrecipIn,Conditions,Clouds,dailyrainin,SoftwareType,DateUTC
2013-09-19 07:00:00,66.1,66.0,29.98,South,190,0.0,-999.0,99,-99.99,,,1.58,weatherlink.com 1.10,2013-09-19 11:00:00,
2013-09-19 07:10:00,66.2,66.0,29.98,South,190,0.0,-999.0,99,-99.99,,,1.58,weatherlink.com 1.10,2013-09-19 11:10:00,
2013-09-19 07:18:00,-999.0,-99.9,0.00,North,-999,-999.0,-999.0,-999,-99.99,,,0.00,weatherlink.com 1.10,2013-09-19 11:18:00,
2013-09-19 07:33:00,-999.0,-99.9,30.00,North,-999,-999.0,-999.0,-999,-99.99,,,0.00,weatherlink.com 1.10,2013-09-19 11:33:00,
2013-09-19 07:48:00,66.6,66.0,30.00,South,190,0.0,-999.0,99,-99.99,,,0.01,weatherlink.com 1.10,2013-09-19 11:48:00,
2013-09-19 08:03:00,66.8,67.0,30.01,South,190,4.0,-999.0,99,-99.99,,,0.06,weatherlink.com 1.10,2013-09-19 12:03:00,
2013-09-19 08:18:00,66.7,66.0,30.00,SSW,213,0.0,-999.0,99,-99.99,,,0.09,weatherlink.com 1.10,2013-09-19 12:18:00,
2013-09-19 08:33:00,66.7,66.0,29.99,SSW,192,4.0,-999.0,99,-99.99,,,0.11,weatherlink.com 1.10,2013-09-19 12:33:00,
2013-09-19 08:48:00,67.0,67.0,29.99,SSW,196,10.0,-999.0,99,-99.99,,,0.13,weatherlink.com 1.10,2013-09-19 12:48:00,
2013-09-19 09:03:00,67.1,67.0,29.98,SSW,194,5.0,-999.0,99,-99.99,,,0.15,weatherlink.com 1.10,2013-09-19 13:03:00,
2013-09-19 09:18:00,67.6,67.0,29.97,SSW,194,2.0,-999.0,99,-99.99,,,0.16,weatherlink.com 1.10,2013-09-19 13:18:00,
2013-09-19 09:33:00,67.7,67.0,29.97,SSW,196,4.0,-999.0,99,-99.99,,,0.16,weatherlink.com 1.10,2013-09-19 13:33:00,
2013-09-19 09:48:00,68.0,68.0,29.98,South,186,3.0,-999.0,99,-99.99,,,0.16,weatherlink.com 1.10,2013-09-19 13:48:00,
2013-09-19 10:03:00,68.5,68.0,29.97,South,186,6.0,-999.0,99,-99.99,,,0.16,weatherlink.com 1.10,2013-09-19 14:03:00,
2013-09-19 10:18:00,68.8,69.0,29.97,SSW,196,11.0,-999.0,99,-99.99,,,0.16,weatherlink.com 1.10,2013-09-19 14:18:00,
2013-09-19 10:33:00,68.8,69.0,29.97,SSW,203,13.0,-999.0,99,-99.99,,,0.16,weatherlink.com 1.10,2013-09-19 14:33:00,
2013-09-19 10:48:00,69.4,69.0,29.97,SSW,198,7.0,-999.0,97,-99.99,,,0.16,weatherlink.com 1.10,2013-09-19 14:48:00,
2013-09-19 11:03:00,71.1,70.0,29.97,South,171,5.0,-999.0,95,-99.99,,,0.16,weatherlink.com 1.10,2013-09-19 15:03:00,
2013-09-19 11:18:00,72.5,69.0,29.97,South,172,5.0,-999.0,89,-99.99,,,0.16,weatherlink.com 1.10,2013-09-19 15:18:00,
2013-09-19 11:33:00,73.7,70.0,29.97,SSW,202,11.0,-999.0,87,-99.99,,,0.16,weatherlink.com 1.10,2013-09-19 15:33:00,
2013-09-19 11:49:00,75.3,70.0,29.96,South,175,7.0,-999.0,84,-99.99,,,0.16,weatherlink.com 1.10,2013-09-19 15:49:00,
2013-09-19 12:04:00,75.6,71.0,29.96,SSW,203,10.0,-999.0,84,-99.99,,,0.16,weatherlink.com 1.10,2013-09-19 16:04:00,
2013-09-19 12:20:00,76.3,70.0,29.96,South,180,6.0,-999.0,82,-99.99,,,0.16,weatherlink.com 1.10,2013-09-19 16:20:00,
2013-09-19 12:34:00,77.2,71.0,29.96,South,188,14.0,-999.0,81,-99.99,,,0.16,weatherlink.com 1.10,2013-09-19 16:34:00,
2013-09-19 12:49:00,78.2,71.0,29.95,South,186,9.0,-999.0,79,-99.99,,,0.16,weatherlink.com 1.10,2013-09-19 16:49:00,
2013-09-19 13:04:00,78.5,72.0,29.95,South,188,9.0,-999.0,79,-99.99,,,0.16,weatherlink.com 1.10,2013-09-19 17:04:00,
2013-09-19 13:19:00,79.5,72.0,29.94,South,179,6.0,-999.0,78,-99.99,,,0.17,weatherlink.com 1.10,2013-09-19 17:19:00,
2013-09-19 13:34:00,79.7,72.0,29.93,South,180,11.0,-999.0,77,-99.99,,,0.17,weatherlink.com 1.10,2013-09-19 17:34:00,
2013-09-19 13:49:00,79.9,73.0,29.93,South,188,8.0,-999.0,78,-99.99,,,0.17,weatherlink.com 1.10,2013-09-19 17:49:00,
2013-09-19 14:04:00,80.3,73.0,29.93,SSW,198,11.0,-999.0,77,-99.99,,,0.17,weatherlink.com 1.10,2013-09-19 18:04:00,
2013-09-19 14:19:00,80.5,73.0,29.93,SSW,198,14.0,-999.0,78,-99.99,,,0.17,weatherlink.com 1.10,2013-09-19 18:19:00,
2013-09-19 14:34:00,81.1,73.0,29.92,SSW,196,9.0,-999.0,76,-99.99,,,0.17,weatherlink.com 1.10,2013-09-19 18:34:00,
2013-09-19 14:49:00,81.5,73.0,29.92,SSW,202,10.0,-999.0,75,-99.99,,,0.17,weatherlink.com 1.10,2013-09-19 18:49:00,
2013-09-19 15:04:00,81.7,73.0,29.92,South,188,14.0,-999.0,76,-99.99,,,0.17,weatherlink.com 1.10,2013-09-19 19:04:00,
2013-09-19 15:19:00,81.7,73.0,29.92,South,180,5.0,-999.0,75,-99.99,,,0.17,weatherlink.com 1.10,2013-09-19 19:19:00,
2013-09-19 15:34:00,81.5,73.0,29.92,South,176,7.0,-999.0,75,-99.99,,,0.17,weatherlink.com 1.10,2013-09-19 19:34:00,
2013-09-19 15:49:00,81.3,73.0,29.91,SSW,207,7.0,-999.0,76,-99.99,,,0.17,weatherlink.com 1.10,2013-09-19 19:49:00,
2013-09-19 16:04:00,82.3,74.0,29.90,SSW,193,10.0,-999.0,75,-99.99,,,0.17,weatherlink.com 1.10,2013-09-19 20:04:00,
2013-09-19 16:19:00,81.7,73.0,29.89,SSW,201,12.0,-999.0,76,-99.99,,,0.17,weatherlink.com 1.10,2013-09-19 20:19:00,
2013-09-19 16:34:00,82.9,74.0,29.89,SW,215,10.0,-999.0,74,-99.99,,,0.17,weatherlink.com 1.10,2013-09-19 20:34:00,
2013-09-19 16:49:00,83.6,75.0,29.88,SSW,213,14.0,-999.0,74,-99.99,,,0.17,weatherlink.com 1.10,2013-09-19 20:49:00,
2013-09-19 17:04:00,83.8,74.0,29.88,South,187,7.0,-999.0,73,-99.99,,,0.17,weatherlink.com 1.10,2013-09-19 21:04:00,
2013-09-19 17:19:00,83.6,74.0,29.87,SSW,196,9.0,-999.0,73,-99.99,,,0.17,weatherlink.com 1.10,2013-09-19 21:19:00,
2013-09-19 17:34:00,82.7,74.0,29.88,SSW,198,13.0,-999.0,74,-99.99,,,0.17,weatherlink.com 1.10,2013-09-19 21:34:00,
2013-09-19 17:49:00,83.4,74.0,29.86,SSW,194,12.0,-999.0,72,-99.99,,,0.17,weatherlink.com 1.10,2013-09-19 21:49:00,
2013-09-19 18:04:00,83.7,74.0,29.87,South,180,3.0,-999.0,72,-99.99,,,0.17,weatherlink.com 1.10,2013-09-19 22:04:00,
2013-09-19 18:19:00,83.1,74.0,29.87,South,177,1.0,-999.0,73,-99.99,,,0.17,weatherlink.com 1.10,2013-09-19 22:19:00,
2013-09-19 18:34:00,82.6,73.0,29.86,South,180,4.0,-999.0,73,-99.99,,,0.17,weatherlink.com 1.10,2013-09-19 22:34:00,
2013-09-19 18:49:00,82.2,73.0,29.86,South,184,5.0,-999.0,74,-99.99,,,0.17,weatherlink.com 1.10,2013-09-19 22:49:00,
2013-09-19 19:04:00,82.3,74.0,29.86,South,175,4.0,-999.0,75,-99.99,,,0.17,weatherlink.com 1.10,2013-09-19 23:04:00,
2013-09-19 19:19:00,81.4,73.0,29.85,South,176,4.0,-999.0,76,-99.99,,,0.17,weatherlink.com 1.10,2013-09-19 23:19:00,
2013-09-19 19:36:00,80.2,73.0,29.84,South,191,2.0,-999.0,78,-99.99,,,0.17,weatherlink.com 1.10,2013-09-19 23:36:00,
2013-09-19 19:50:00,79.3,73.0,29.83,South,180,3.0,-999.0,80,-99.99,,,0.17,weatherlink.com 1.10,2013-09-19 23:50:00,
2013-09-19 20:05:00,78.4,72.0,29.83,South,173,4.0,-999.0,81,-99.99,,,0.17,weatherlink.com 1.10,2013-09-20 00:05:00,
2013-09-19 20:20:00,77.8,72.0,29.83,South,171,2.0,-999.0,83,-99.99,,,0.17,weatherlink.com 1.10,2013-09-20 00:20:00,
2013-09-19 20:35:00,77.3,72.0,29.84,SSE,167,4.0,-999.0,84,-99.99,,,0.17,weatherlink.com 1.10,2013-09-20 00:35:00,
2013-09-19 20:50:00,76.9,72.0,29.85,South,186,8.0,-999.0,85,-99.99,,,0.17,weatherlink.com 1.10,2013-09-20 00:50:00,
2013-09-19 21:05:00,76.9,72.0,29.86,South,180,5.0,-999.0,85,-99.99,,,0.17,weatherlink.com 1.10,2013-09-20 01:05:00,
2013-09-19 21:20:00,76.9,72.0,29.87,South,191,6.0,-999.0,85,-99.99,,,0.17,weatherlink.com 1.10,2013-09-20 01:20:00,
2013-09-19 21:35:00,76.4,72.0,29.87,South,181,4.0,-999.0,86,-99.99,,,0.17,weatherlink.com 1.10,2013-09-20 01:35:00,
2013-09-19 21:50:00,76.2,72.0,29.87,South,191,5.0,-999.0,87,-99.99,,,0.17,weatherlink.com 1.10,2013-09-20 01:50:00,
2013-09-19 22:05:00,76.1,72.0,29.86,South,186,3.0,-999.0,87,-99.99,,,0.17,weatherlink.com 1.10,2013-09-20 02:05:00,
2013-09-19 22:20:00,76.0,72.0,29.86,SSW,193,4.0,-999.0,88,-99.99,,,0.17,weatherlink.com 1.10,2013-09-20 02:20:00,
2013-09-19 22:35:00,76.4,72.0,29.86,SSW,193,6.0,-999.0,87,-99.99,,,0.17,weatherlink.com 1.10,2013-09-20 02:35:00,
2013-09-19 22:50:00,76.4,72.0,29.85,South,184,9.0,-999.0,87,-99.99,,,0.17,weatherlink.com 1.10,2013-09-20 02:50:00,
2013-09-19 23:05:00,76.3,72.0,29.86,South,169,9.0,-999.0,87,-99.99,,,0.17,weatherlink.com 1.10,2013-09-20 03:05:00,
2013-09-19 23:20:00,76.4,72.0,29.85,SSW,193,15.0,-999.0,87,-99.99,,,0.17,weatherlink.com 1.10,2013-09-20 03:20:00,
2013-09-19 23:35:00,76.7,72.0,29.85,SSW,209,11.0,-999.0,86,-99.99,,,0.17,weatherlink.com 1.10,2013-09-20 03:35:00,
2013-09-19 23:50:00,76.5,72.0,29.86,SW,217,14.0,-999.0,86,-99.99,,,0.17,weatherlink.com 1.10,2013-09-20 03:50:00,